Погода в Енисейске

Погода в Енисейске : погода сейчас, прогноз погоды и архив. Всё, что Вы хотите узнать о погоде в Енисейске!

Хотите узнать прогноз погоды в Енисейске? Тогда Вам сюда: Погода в Енисейске

Поиск расширенной информации на нашем сайте:

Другие новости

Новости СМИ2

Главная страница сайта

Новости сайта

02.10.2013

Напоминаем, что на нашем новом сайте вы можете получить высокодетализированные прогнозы погоды по пунктам России, СНГ и мира (включающие важные для авиации метеовеличины, такие как направление и скорость ветра, видимость, явления погоды, количество и форма облачности, нижняя и верхняя граница облачности), а также ознакомиться с разнообразными материалами по авиационной метеорологии и подборкой полезных ссылок на эту тему.

Сайт Метеоцентр.Азия посвящён разработке технологий оптимизации авиаметеорологического обслуживания, включая проектирование и перспективное создание нескольких автоматизированных авиаметеорологических систем:
- система выпуска высокодетальных прогностических карт явлений погоды для нижнего воздушного пространства по России и ближнему зарубежью;
- система верификации прогнозов TAF (выпускаемых синоптиками официальных АМСГ РФ и ближнего зарубежья) и AUTOTAF (выпускаемых сайтом Метеоцентр.Азия) - выявление ошибок, онлайн-сопоставление с фактической погодой METAR, автоматическое внесение коррективов в прогнозы при резком отклонении фактической погоды от прогноза, подсчёт оправдываемости прогнозов по элементам и в целом;
- система обработки, анализа и отображения авиаметеорологической информации для применения провайдерами метеорологической информации.

Рекомендуем: Заказать солдатиков набор солдатиков.

Погода в Енисейске - сегодня

Время (UTC), дата Ветер
(°,м/с) 
Видим.   Явления Облачность Т
(°С)
Тd
(°С)
f(%) Тe
(°С)
Pmin
(гПа)
dP
(гПа)
Po
(мм)
O2
(г/м3)
Тmin Tmax R s Состояние
почвы
18 27.04.17 290 (З) 30000 м    6/0 средняя 
[Ac trans]
+14.6 +4.5 51 +15  1006.7  1.8  748  285           
21 27.04.17 340 (С) 3{10}  30000 м    8/3 600 м кучево-дожд., средняя 
[Cb cap|Ac trans]
+11 +5.1 67 +11  1010  3.1  750  290           
00 28.04.17 310 (СЗ) 4{12}  20000 м  {ливн. осадки}  9/9 540 м 
[Sc]
+5 +1.7 79 +3  1015.6  5.3  754  298  +4.9    0.0     
03 28.04.17 310 (СЗ) 5{11}  20000 м    8/8 1000 м 
[Sc]
+4.9 -0.4 69 +3  1019  3.4  757  300  +4.1         
06 28.04.17 300 (СЗ) 20000 м    9/0 верхняя 
[Ci fib]
+9.4 -2.2 44 +8  1019.4  0.5  757  295           
09 28.04.17 320 (СЗ) 20000 м    9/0 верхняя 
[Ci fib]
+10.8 -7.8 26 +10  1018.9  -0.4  757  294           
12 28.04.17 360 (С) 20000 м    9/0 средняя, верхняя 
[Ac trans|Ci sp]
+10.5 -7.9 27 +11  1017.7  -1.3  756  294    +12       
15 28.04.17 тихо ()   30000 м    9/0 средняя, верхняя 
[Ac trans|Ci fib]
+4 -5.5 50 +4  1017  -0.9  755  300           
18 28.04.17 тихо ()   30000 м    3/0 верхняя 
[Ci fib]
+0.1 -4.3 72 1015.9  -1.2  754  304           
21 28.04.17 150 (ЮВ) 30000 м    4/0 средняя 
[Ac trans]
-1.4 -5.7 72 -1  1014.5  -1.5  753  306           
00 29.04.17 140 (ЮВ) 20000 м    6/0 средняя, верхняя 
[Ac cast|Ci fib]
+0.6 -4.8 67 +1  1012.8  -1.5  752  303  -2.6         
03 29.04.17 270 (З) 20000 м    9/0 средняя, верхняя 
[Ac trans|Ci fib]
+10.2 -2 42 +10  1010.3  -2.2  750  292           
06 29.04.17 250 (З) 6{10}  20000 м    9/0 средняя, верхняя 
[Ac trans|Ci fib]
+14.8 -3.2 29 +14  1007.9  -2.2  749  286           
09 29.04.17 250 (З) 5{11}  20000 м    9/8 600 м кучево-дожд., средняя, верхняя 
[Cb cap|Ac trans|Ci fib]
+14.8 -0.8 34 +14  1005.2  -2.6  747  285           
12 29.04.17 300 (СЗ) 3{12}  10 км  слаб. ливневой дождь  10/10 600 м кучево-дожд. 
[Cb cap]
+7.2 +5.6 90 +6  1006.8  1.3  748  293    +15.4  0.0     
15 29.04.17 270 (З) 18000 м  слаб. ливневой дождь  10/10 600 м кучево-дожд. 
[Cb cap]
+3.3 +2 91 +2  1009.1  2.1  749  298           
18 29.04.17 250 (З) 30000 м  {ливн. осадки}  9/9 600 м кучево-дожд. 
[Cb cap]
+3 +2.2 94 +2  1010.3  1.2  750  299           
21 29.04.17 240 (ЮЗ) 30000 м    9/3 600 м кучево-дожд., верхняя 
[Cb cap|Ci fib]
+2.1 +1 92 +1  1012  1.6  751  300           
00 30.04.17 260 (З) 20000 м    9/8 1000 м верхняя 
[Sc|Ci fib]
+2.7 +0.9 88 +1  1013.1  1.1  752  300  +1.9       
03 30.04.17 220 (ЮЗ) 20000 м    9/4 600 м кучево-дожд., верхняя 
[Cb cap|Ci fib]
+5.2 -0.3 68 +4  1013.2  0.2  752  297           
06 30.04.17 290 (З) 20000 м  в посл. час ливневой снег  9/6 600 м кучево-дожд., верхняя 
[Cb cap|Ci fib]
+6.7 -0.9 58 +5  1012.8  -0.3  752  296           
09 30.04.17 300 (СЗ) 20000 м    9/6 600 м кучево-дожд., верхняя 
[Cb cap|Ci fib]
+8 -2.9 46 +7  1012.4  -0.4  752  295           
12 30.04.17 300 (СЗ) 3{11}  20000 м    6/6 600 м кучево-дожд. 
[Cb cap]
+6 -4.8 46 +5  1013.1  0.6  752  297    +6.3  0.3     
15 30.04.17 320 (СЗ) 30000 м    6/0 средняя 
[Ac trans]
+3.3 -4.2 58 +2  1014.6  1.4  753  300           
18 30.04.17 240 (ЮЗ) 30000 м  {ливн. осадки}  8/5 600 м кучево-дожд., средняя 
[Cb cap|Ac trans]
+1.1 -4.9 64 1014.8  0.2  753  303           
Время (UTC), дата Ветер
(°,м/с) 
Видим.   Явления Облачность Т
(°С)
Тd
(°С)
f(%) Тe
(°С)
Pmin
(гПа)
dP
(гПа)
Po
(мм)
O2
(г/м3)
Тmin Tmax R s Состояние
почвы

Для получения пояснительной информации подведите курсор к названию столбца.

ПОГОДА в Енисейске - архив

Всё, что Вы хотите узнать о погоде в Енисейске - удобно и подробно!

Выберите нужную дату (начиная с 1 января 2015* года) и нажмите кнопку "Найти".
Будут отображены архивные сводки погоды по пункту Енисейск, начиная с указанной даты.


Отображать данные в формате CSV (для использования в таблицах Excel)


Внимание! Наш архив погоды предназначен исключительно для личного некоммерческого использования в познавательных целях. Если Вам необходимы официальные справки о состоянии погоды (для производственных, юридических, коммерческих и т.п. целей), обращайтесь в органы Росгидромета.

*Примечание: данная дата относится к архиву по метеостанциям СССР (Россия, СНГ, Балтия).
Архив по метеостанциям Зарубежной Европы и Азии (кроме Китая) хранится 10 дней, по другим регионам земного шара (Китай, Африка, Америка, Австралия, Океания) - 1 день.

Енисейск - район местоположения метеостанции


Название, широта, долгота, высота метеостанции:
Енисейск 58.4°ш. 92.2°д. 79 м над ур. моря [Российская Федерация]

Дополнительная информация

В oтличие oт бoльшинства пoгoдных сайтoв мы публикуем пoдрoбную метеoинфoрмацию в детальнoм прoфессиoнальнoм фoрмате.

Характеристики температуры и влажнoсти вoздуха измеряются на высoте 2 м в тени вдали oт зданий и деревьев.
Скoрoсть ветра измеряется на высoте 10 м (на урoвне рoста челoвека скoрoсть ветра ниже в 1.5-2 раза). Если метеoстанция нахoдится в гoрoде или в лесу, тo скoрoсть ветра занижена на 2-4 м/с пo сравнению с oткрытым местoм. Скoрoсть ветра над акватoриями крупных рек и oзёр, а также на вершинах хoлмoв на 2-5 м/с выше, чем в oбычных услoвиях.
Атмoсфернoе давление в разных тoчках местнoсти мoжет значительнo oтличаться oт давления на метеoстанции, в зависимoсти oт услoвий рельефа (при пoдъёме на 10 м давление пoнижается примернo на 1 мм рт.ст.).